, OR

(GMT )
Tillamook

Weather History for KTMK - June, 2013

Change the Weather History Date:

Friday, June 14, 2013

  Actual Average Record
Temperature  
Mean Temperature 60 °F -  
Max Temperature 66 °F - - ()
Min Temperature 53 °F - - ()
Degree Days  
Heating Degree Days 6    
Growing Degree Days 10 (Base 50)    
Moisture  
Dew Point 53 °F    
Average Humidity 79    
Maximum Humidity 100    
Minimum Humidity 59    
Precipitation  
Precipitation 0.00 in - - ()
Sea Level Pressure  
Sea Level Pressure 30.20 in    
Wind  
Wind Speed 2 mph (NW)    
Max Wind Speed 15 mph    
Max Gust Speed 17 mph    
Visibility 10 miles    
Events Rain    
Averages and records for this station are not official NWS values.
T = Trace of Precipitation, MM = Missing Value Source: NWS Daily Summary

Daily Weather History Graph

Daily Weather History Graph

Search for Another Location

Airport or City:

Trip Planner

Search our weather history database for the weather conditions in past years. The results will help you decide how hot, cold, wet, or windy it might be!

Date:

Astronomy

Jun. 14, 2013 Rise Set
Actual Time 6:26 AM MDT 10:05 PM MDT
Civil Twilight 5:48 AM MDT 10:43 PM MDT
Nautical Twilight 4:58 AM MDT 11:33 PM MDT
Astronomical Twilight 3:50 AM MDT 12:41 AM MDT
Moon 12:21 PM MDT (6/14) 1:00 AM MDT (6/14)
Length of Visible Light 16h 54m
Length of Day
15h 38m
Waxing Crescent, 31% of the Moon is Illuminated
Jun 14
Waxing Crescent
Jun 16
First Quarter
Jun 23
Full
Jun 29
Last Quarter
Jul 8
New

Hourly Weather History & Observations

Time (MDT) Temp. Dew Point Humidity Pressure Visibility Wind Dir Wind Speed Gust Speed Precip Events Conditions
12:15 AM 55.4 °F 51.8 °F 88% 30.32 in 10.0 mi Calm Calm - N/A   Overcast
12:35 AM 55.4 °F 51.8 °F 88% 30.31 in 10.0 mi Calm Calm - N/A   Overcast
12:55 AM 55.4 °F 53.6 °F 94% 30.31 in 10.0 mi Calm Calm - N/A   Overcast
1:15 AM 55.4 °F 51.8 °F 88% 30.31 in 10.0 mi Calm Calm - N/A   Overcast
1:35 AM 55.4 °F 51.8 °F 88% 30.31 in 10.0 mi Calm Calm - N/A   Overcast
1:55 AM 55.4 °F 51.8 °F 88% 30.30 in 10.0 mi Calm Calm - N/A   Overcast
2:15 AM 55.4 °F 53.6 °F 94% 30.31 in 10.0 mi Calm Calm - N/A   Overcast
2:35 AM 55.4 °F 53.6 °F 94% 30.30 in 7.0 mi WNW 6.9 mph - N/A   Light Drizzle
2:55 AM 55.4 °F 53.6 °F 94% 30.30 in 10.0 mi NW 4.6 mph - N/A   Overcast
3:15 AM 55.4 °F 53.6 °F 94% 30.29 in 7.0 mi WNW 4.6 mph - N/A   Overcast
3:35 AM 55.4 °F 53.6 °F 94% 30.29 in 5.0 mi Calm Calm - N/A Rain Light Rain
3:55 AM 55.4 °F 53.6 °F 94% 30.29 in 10.0 mi Calm Calm - N/A   Overcast
4:15 AM 55.4 °F 53.6 °F 94% 30.28 in 7.0 mi Calm Calm - N/A   Overcast
4:35 AM 55.4 °F 53.6 °F 94% 30.28 in 10.0 mi SE 3.5 mph - N/A   Overcast
4:55 AM 55.4 °F 53.6 °F 94% 30.27 in 10.0 mi Calm Calm - N/A   Overcast
5:15 AM 55.4 °F 55.4 °F 100% 30.27 in 10.0 mi Calm Calm - N/A   Overcast
5:35 AM 55.4 °F 55.4 °F 100% 30.27 in 10.0 mi Calm Calm - N/A   Overcast
5:55 AM 55.4 °F 55.4 °F 100% 30.27 in 10.0 mi Calm Calm - N/A   Overcast
6:15 AM 55.4 °F 55.4 °F 100% 30.27 in 10.0 mi Calm Calm - N/A   Overcast
6:35 AM 55.4 °F 55.4 °F 100% 30.27 in 10.0 mi Calm Calm - N/A   Overcast
6:55 AM 55.4 °F 55.4 °F 100% 30.28 in 10.0 mi Calm Calm - N/A   Overcast
7:15 AM 55.4 °F 55.4 °F 100% 30.27 in 7.0 mi Calm Calm - N/A   Overcast
7:35 AM 55.4 °F 55.4 °F 100% 30.28 in 10.0 mi Calm Calm - N/A   Overcast
7:55 AM 55.4 °F 55.4 °F 100% 30.27 in 10.0 mi Calm Calm - N/A   Overcast
8:15 AM 55.4 °F 55.4 °F 100% 30.27 in 10.0 mi Calm Calm - N/A   Overcast
8:35 AM 55.4 °F 55.4 °F 100% 30.27 in 10.0 mi Calm Calm - N/A   Overcast
8:55 AM 55.4 °F 55.4 °F 100% 30.26 in 10.0 mi Calm Calm - N/A   Overcast
9:15 AM 57.2 °F 55.4 °F 94% 30.26 in 10.0 mi Calm Calm - N/A   Overcast
9:35 AM 57.2 °F 53.6 °F 88% 30.26 in 10.0 mi Calm Calm - N/A   Overcast
9:55 AM 57.2 °F 51.8 °F 82% 30.26 in 10.0 mi Calm Calm - N/A   Mostly Cloudy
10:15 AM 59.0 °F 50.0 °F 72% 30.26 in 10.0 mi Calm Calm - N/A   Overcast
10:35 AM 59.0 °F 51.8 °F 77% 30.25 in 10.0 mi Calm Calm - N/A   Overcast
10:55 AM 59.0 °F 50.0 °F 72% 30.25 in 10.0 mi Calm Calm - N/A   Overcast
11:15 AM 60.8 °F 50.0 °F 68% 30.24 in 10.0 mi North 3.5 mph - N/A   Overcast
11:35 AM 60.8 °F 48.2 °F 63% 30.24 in 10.0 mi North 3.5 mph - N/A   Overcast
11:55 AM 62.6 °F 48.2 °F 59% 30.24 in 10.0 mi Calm Calm - N/A   Overcast
12:15 PM 62.6 °F 51.8 °F 68% 30.23 in 10.0 mi NW 6.9 mph - N/A   Mostly Cloudy
12:35 PM 64.4 °F 51.8 °F 64% 30.22 in 10.0 mi WNW 5.8 mph - N/A   Scattered Clouds
12:55 PM 64.4 °F 50.0 °F 59% 30.22 in 10.0 mi WNW 4.6 mph - N/A   Mostly Cloudy
1:15 PM 64.4 °F 50.0 °F 59% 30.22 in 10.0 mi Calm Calm - N/A   Overcast
1:35 PM 64.4 °F 50.0 °F 59% 30.21 in 10.0 mi Calm Calm - N/A   Overcast
1:55 PM 66.2 °F 51.8 °F 60% 30.21 in 10.0 mi NW 9.2 mph - N/A   Overcast
2:15 PM 66.2 °F 51.8 °F 60% 30.20 in 10.0 mi NW 8.1 mph - N/A   Mostly Cloudy
2:35 PM 66.2 °F 51.8 °F 60% 30.19 in 10.0 mi WNW 9.2 mph - N/A   Mostly Cloudy
2:55 PM 66.2 °F 51.8 °F 60% 30.19 in 10.0 mi WNW 6.9 mph - N/A   Scattered Clouds
3:15 PM 66.2 °F 51.8 °F 60% 30.18 in 10.0 mi NW 10.4 mph - N/A   Scattered Clouds
3:35 PM 66.2 °F 51.8 °F 60% 30.17 in 10.0 mi NW 9.2 mph - N/A   Clear
3:55 PM 66.2 °F 51.8 °F 60% 30.16 in 10.0 mi NW 11.5 mph - N/A   Clear
4:15 PM 66.2 °F 51.8 °F 60% 30.16 in 10.0 mi NW 13.8 mph - N/A   Clear
4:35 PM 66.2 °F 53.6 °F 64% 30.15 in 10.0 mi NW 12.7 mph - N/A   Clear
4:55 PM 66.2 °F 51.8 °F 60% 30.15 in 10.0 mi NW 11.5 mph - N/A   Clear
5:15 PM 66.2 °F 53.6 °F 64% 30.14 in 10.0 mi WNW 12.7 mph - N/A   Clear
5:35 PM 66.2 °F 51.8 °F 60% 30.13 in 10.0 mi NW 13.8 mph - N/A   Clear
5:55 PM 64.4 °F 51.8 °F 64% 30.12 in 10.0 mi NW 11.5 mph - N/A   Clear
6:15 PM 64.4 °F 51.8 °F 64% 30.11 in 10.0 mi NW 11.5 mph - N/A   Clear
6:35 PM 64.4 °F 51.8 °F 64% 30.10 in 10.0 mi WNW 15.0 mph - N/A   Clear
6:55 PM 64.4 °F 51.8 °F 64% 30.09 in 10.0 mi NW 11.5 mph 17.3 mph N/A   Clear
7:15 PM 62.6 °F 51.8 °F 68% 30.08 in 10.0 mi NW 10.4 mph - N/A   Clear
7:35 PM 62.6 °F 51.8 °F 68% 30.07 in 10.0 mi NW 11.5 mph 16.1 mph N/A   Clear
7:55 PM 62.6 °F 53.6 °F 72% 30.07 in 10.0 mi NW 9.2 mph - N/A   Clear
8:15 PM 62.6 °F 51.8 °F 68% 30.06 in 10.0 mi NW 9.2 mph - N/A   Clear
8:35 PM 62.6 °F 51.8 °F 68% 30.06 in 10.0 mi NNW 5.8 mph - N/A   Clear
8:55 PM 62.6 °F 53.6 °F 72% 30.05 in 10.0 mi Calm Calm - N/A   Clear
9:15 PM 62.6 °F 53.6 °F 72% 30.05 in 10.0 mi Calm Calm - N/A   Clear
9:35 PM 60.8 °F 53.6 °F 77% 30.04 in 10.0 mi Calm Calm - N/A   Clear
9:55 PM 60.8 °F 53.6 °F 77% 30.03 in 10.0 mi Calm Calm - N/A   Clear
10:15 PM 59.0 °F 53.6 °F 82% 30.03 in 10.0 mi Calm Calm - N/A   Clear
10:35 PM 57.2 °F 53.6 °F 88% 30.02 in 10.0 mi Calm Calm - N/A   Clear
10:55 PM 55.4 °F 51.8 °F 88% 30.02 in 10.0 mi Calm Calm - N/A   Clear
11:15 PM 55.4 °F 51.8 °F 88% 30.02 in 10.0 mi Calm Calm - N/A   Clear
11:35 PM 53.6 °F 51.8 °F 94% 30.02 in 10.0 mi Calm Calm - N/A   Clear
11:55 PM 53.6 °F 51.8 °F 94% 30.01 in 10.0 mi Calm Calm - N/A   Clear